Wind_Speed
14 14 14 13 14 14 13 13 14 13 12 12 12 12 12 13 13 12 12 12 12 11 11 12 12 12 12 13 12 12 12 13 13 12 13 13 12 12 12 12 12 12 12
14 14 14 13 13 13 13 14 14 13 12 12 12 13 13 14 14 14 13 14 13 13 12 13 13 13 13 13 14 14 13 13 14 14 14 14 13 13 13 13 13 13 13
14 14 14 14 13 13 14 14 14 13 13 13 14 14 14 14 14 14 14 14 14 14 13 13 14 14 14 14 15 15 15 15 15 15 15 15 15 15 15 14 14 15 15
14 14 14 14 14 14 15 15 14 13 13 14 15 14 15 15 15 14 15 14 14 14 14 14 15 15 15 15 16 17 16 17 17 16 16 16 17 17 17 17 16 17 17
15 15 15 15 15 15 15 15 15 14 14 14 14 14 14 15 15 15 15 15 15 16 15 15 16 16 17 16 17 17 17 18 18 18 18 18 18 19 19 19 19 19 20
16 16 16 16 16 15 16 16 15 15 15 15 15 15 15 15 15 16 16 16 16 16 16 16 17 17 18 18 18 18 18 19 19 19 20 20 20 20 21 21 21 22 23
16 16 16 16 16 15 16 16 16 16 15 16 15 15 16 15 15 16 16 17 17 17 17 17 17 18 19 19 19 19 19 20 20 21 21 21 22 22 22 23 24 25 25
17 18 17 17 17 17 18 18 18 17 16 16 16 17 17 16 17 18 18 18 18 19 19 19 19 19 19 20 20 20 21 21 21 22 23 24 24 24 25 26 26 27 28
17 17 17 17 18 18 19 19 19 18 18 18 18 19 19 19 19 19 20 20 20 20 19 19 19 20 20 21 21 21 22 23 23 24 25 25 26 27 27 28 29 29 29
17 17 17 17 18 18 19 19 18 18 18 19 20 21 21 20 21 21 21 21 21 20 21 21 21 21 22 22 22 22 23 24 25 26 27 28 28 29 29 30 31 32 32
17 18 18 18 17 17 17 18 18 19 19 19 20 21 21 22 21 21 21 21 21 21 21 21 22 23 24 25 25 25 26 27 28 28 29 30 30 31 32 33 34 34 35
18 18 18 18 19 18 18 19 19 21 21 22 22 21 22 22 22 22 22 21 21 22 22 23 23 24 25 26 27 28 29 30 30 30 31 31 32 33 34 35 35 36 37
17 17 18 18 18 19 19 19 20 20 20 21 21 21 21 21 22 22 22 22 23 24 25 25 26 27 28 28 29 30 31 32 32 33 33 34 35 36 37 37 37 38 39
18 18 18 18 18 18 19 19 19 20 20 21 22 21 21 21 22 22 22 23 24 25 26 27 28 29 30 31 31 32 33 34 35 36 36 37 38 38 39 39 40 40 41
20 20 20 20 20 20 20 20 21 21 21 21 21 22 22 23 23 23 23 24 25 27 28 29 30 31 32 33 34 35 36 38 38 38 38 39 40 40 41 41 42 42 42
19 20 20 21 21 22 22 21 21 21 21 21 22 22 23 24 24 24 25 26 27 28 30 31 32 33 34 36 37 38 40 40 40 40 40 41 42 43 43 43 43 43 43
20 20 21 22 22 22 22 22 21 20 21 21 22 23 24 24 25 26 27 29 30 31 32 33 34 35 36 37 38 39 41 41 41 42 42 43 44 44 44 44 44 44 45
20 20 20 21 22 22 21 21 21 22 22 22 23 24 25 26 27 29 30 31 32 33 35 36 37 37 38 39 40 41 41 42 42 43 43 43 43 43 44 45 45 45 46
20 20 20 20 21 21 21 22 22 23 24 25 25 26 27 28 29 30 31 33 34 35 36 37 38 39 39 40 41 42 43 43 44 44 44 44 44 44 45 45 46 47 47
20 20 20 20 21 22 23 23 23 24 25 26 27 27 28 28 30 31 32 34 35 36 37 38 39 40 40 41 42 43 43 44 45 45 46 46 46 47 48 48 48 48 48
21 21 21 22 23 23 24 25 26 26 25 26 27 28 29 30 31 32 34 36 37 38 38 39 40 41 41 42 43 44 45 46 46 46 46 47 48 49 49 49 49 49 49
22 22 22 23 24 25 26 26 27 26 27 28 29 30 31 32 33 34 35 36 37 38 39 41 41 42 43 44 46 46 46 47 47 48 48 48 49 50 51 51 50 50 50
21 22 22 23 24 25 26 26 26 27 28 29 30 31 32 33 34 35 36 37 38 39 40 41 42 43 44 45 46 46 46 47 47 48 48 48 49 49 50 50 49 49 48
22 22 23 24 25 25 26 27 27 28 29 30 31 32 33 34 34 35 36 38 39 40 40 42 42 43 43 43 44 44 45 46 46 46 46 47 47 48 48 48 48 47 45
23 24 24 25 25 26 27 28 28 29 30 31 32 32 33 34 35 36 37 38 38 39 40 41 42 43 43 43 43 43 44 44 44 44 44 45 45 46 46 46 46 45 44
22 24 24 25 26 26 28 29 29 30 31 32 33 33 33 34 35 36 37 37 38 39 40 41 42 42 43 42 42 43 43 43 44 44 44 45 45 45 45 45 44 43 42
Wind_Direction
259 256 255 257 259 257 256 257 256 257 256 252 253 255 257 258 255 255 262 265 268 268 264 262 263 264 265 267 272 277 281 283 284 287 290 293 294 294 295 294 296 299 299
259 256 254 256 257 254 255 255 256 258 257 254 253 257 259 261 256 253 259 264 266 265 264 262 263 264 265 267 271 275 279 282 284 285 287 289 291 292 293 292 294 295 295
259 258 257 256 257 257 257 256 257 258 258 259 259 260 258 260 258 256 260 262 265 265 264 264 262 264 266 268 272 273 276 279 281 283 284 286 288 289 291 291 291 291 292
257 259 259 257 259 259 257 257 255 257 259 259 260 259 258 260 259 258 261 263 265 264 264 264 265 266 269 272 275 274 275 277 277 280 283 285 287 288 288 289 288 288 289
257 261 261 258 260 259 257 255 254 255 257 258 258 260 261 261 260 258 260 262 264 263 262 265 269 269 271 274 277 275 275 276 276 278 281 283 285 286 287 288 287 287 287
258 261 262 260 258 258 255 254 255 254 255 256 260 259 262 263 263 261 259 261 262 264 266 267 270 271 272 274 276 275 274 275 275 276 279 282 284 285 287 287 287 288 288
257 261 262 257 257 257 254 256 259 259 256 257 261 263 263 262 262 263 261 260 262 264 267 269 270 272 272 274 275 276 275 275 277 280 281 283 284 285 287 287 288 288 289
261 262 260 259 257 256 256 256 259 259 258 257 260 262 264 265 264 262 262 262 263 266 268 270 271 270 271 274 273 275 276 277 280 282 283 284 285 285 286 288 289 290 291
259 258 259 258 259 257 256 257 256 257 257 258 261 263 264 265 264 262 262 263 265 266 269 271 271 272 274 276 275 274 276 278 281 283 284 285 286 286 287 288 289 290 291
262 262 260 261 259 258 256 256 254 256 259 260 262 263 263 264 265 264 264 264 265 267 270 272 271 273 275 277 278 278 278 279 281 283 284 285 286 286 287 288 288 289 290
266 265 264 261 259 258 258 257 256 256 259 261 263 264 263 264 265 265 264 265 267 270 273 274 274 274 274 275 277 279 279 279 281 283 284 285 285 286 287 288 288 288 290
266 267 265 261 259 259 259 261 260 259 260 262 263 263 263 264 266 265 264 266 267 270 274 275 275 275 276 277 279 279 281 281 282 283 285 285 286 286 287 287 288 289 290
266 266 265 265 264 263 263 262 262 263 264 264 265 264 264 266 268 267 266 269 271 271 273 275 277 278 279 279 280 281 282 283 283 284 286 287 288 288 287 287 287 288 290
266 266 267 264 264 263 261 261 263 264 265 267 267 265 266 268 269 269 269 270 272 273 274 276 278 280 280 281 282 283 284 285 285 286 287 288 289 289 288 288 288 289 290
263 264 265 264 262 261 262 262 264 266 266 267 268 269 270 270 272 272 272 274 275 274 276 277 279 280 282 283 283 284 285 286 287 287 288 287 288 289 288 288 288 289 290
263 265 267 267 265 263 264 263 264 266 268 268 269 271 273 274 273 273 275 276 277 278 279 281 282 283 285 285 285 285 286 286 287 287 287 287 288 288 288 287 288 289 289
264 266 267 267 266 266 265 264 265 267 270 272 273 274 274 274 274 275 277 278 279 280 282 283 284 285 285 285 286 286 286 286 287 288 288 288 287 287 287 288 288 288 289
265 268 270 270 267 267 266 266 267 269 272 275 275 276 276 277 278 279 279 280 281 282 283 284 285 286 286 286 287 287 287 287 288 289 289 288 288 287 287 288 288 288 288
268 269 270 271 270 269 270 271 270 271 272 275 277 279 280 279 279 280 282 282 283 283 284 285 286 287 288 288 289 289 288 288 289 289 288 287 287 287 287 288 289 289 289
269 270 270 271 271 271 272 272 271 272 273 276 279 281 283 283 282 283 284 284 284 286 287 287 289 289 289 289 289 289 289 289 289 288 287 287 286 286 286 287 288 289 289
270 270 270 270 270 271 272 273 274 276 280 283 283 284 284 285 285 285 285 286 287 288 289 290 290 290 290 290 289 290 289 289 289 288 286 286 285 285 286 287 287 287 287
269 271 272 273 271 271 272 274 276 279 282 283 284 285 286 287 288 289 289 290 290 291 292 292 291 291 291 290 290 291 290 290 289 287 287 286 286 287 287 287 287 287 287
271 271 272 274 274 274 275 277 280 282 283 284 285 286 287 288 288 290 291 292 292 293 293 294 294 294 293 293 293 292 292 292 290 289 288 287 287 287 288 288 289 289 289
272 273 272 274 276 277 278 279 281 284 285 286 287 288 289 290 291 292 293 294 295 296 296 296 297 298 298 297 297 296 295 294 293 292 290 290 289 290 290 290 290 290 290
274 274 275 276 278 280 281 282 284 286 287 288 289 291 292 292 293 294 294 295 296 297 297 297 298 300 300 300 299 298 297 296 295 294 292 292 291 291 290 289 289 290 289
275 276 278 279 282 283 285 286 287 288 289 290 290 292 293 294 295 295 296 297 297 298 298 299 300 301 301 301 300 300 300 298 297 295 294 292 292 291 291 290 290 289 289
Height
5850 5851 5852 5853 5854 5855 5856 5857 5858 5859 5860 5862 5863 5864 5865 5866 5867 5868 5869 5870 5870 5871 5871 5872 5872 5873 5873 5873 5874 5874 5874 5874 5874 5874 5874 5873 5873 5872 5872 5871 5871 5870 5869
5847 5848 5849 5850 5851 5852 5853 5854 5856 5856 5857 5859 5860 5861 5862 5863 5863 5864 5865 5866 5867 5867 5868 5868 5869 5869 5870 5870 5871 5871 5871 5871 5871 5871 5870 5870 5869 5869 5868 5868 5867 5866 5866
5844 5845 5846 5847 5848 5849 5850 5851 5852 5853 5853 5855 5856 5858 5859 5859 5860 5861 5862 5863 5863 5864 5864 5865 5865 5866 5866 5866 5867 5867 5867 5867 5867 5867 5867 5866 5866 5865 5865 5864 5863 5862 5862
5841 5842 5843 5844 5845 5846 5847 5847 5848 5849 5850 5852 5853 5854 5855 5856 5856 5857 5858 5859 5860 5860 5861 5861 5862 5862 5862 5862 5863 5863 5863 5863 5863 5863 5863 5862 5861 5861 5860 5860 5859 5858 5857
5837 5838 5839 5840 5841 5842 5843 5844 5845 5846 5847 5848 5849 5850 5851 5852 5852 5853 5854 5855 5856 5856 5857 5857 5858 5858 5858 5858 5858 5858 5858 5858 5858 5858 5858 5857 5857 5856 5855 5855 5854 5853 5852
5834 5835 5835 5836 5837 5838 5839 5840 5841 5842 5844 5845 5845 5846 5847 5848 5848 5849 5850 5851 5852 5852 5853 5853 5853 5853 5854 5854 5853 5853 5853 5853 5853 5853 5853 5852 5852 5851 5850 5849 5848 5847 5846
5830 5830 5831 5832 5833 5834 5835 5836 5838 5838 5840 5841 5842 5842 5843 5844 5844 5845 5846 5847 5847 5848 5848 5848 5848 5849 5849 5849 5848 5848 5848 5848 5848 5847 5847 5846 5846 5845 5844 5843 5842 5840 5839
5825 5826 5827 5828 5829 5830 5831 5832 5834 5835 5836 5837 5838 5839 5839 5840 5840 5841 5842 5842 5843 5843 5843 5844 5844 5844 5844 5844 5843 5843 5843 5843 5842 5842 5841 5840 5839 5838 5837 5836 5835 5833 5832
5821 5822 5823 5823 5824 5826 5827 5828 5829 5830 5831 5832 5833 5834 5835 5835 5836 5836 5837 5838 5838 5838 5839 5839 5838 5838 5839 5838 5838 5837 5837 5837 5836 5836 5835 5834 5832 5831 5830 5829 5827 5826 5824
5817 5818 5819 5819 5820 5821 5822 5823 5824 5825 5826 5827 5828 5829 5829 5830 5831 5831 5831 5832 5833 5833 5833 5833 5833 5833 5833 5833 5832 5832 5831 5831 5830 5829 5828 5827 5825 5824 5822 5820 5819 5817 5815
5813 5814 5814 5815 5816 5817 5818 5819 5820 5821 5822 5822 5823 5823 5824 5825 5825 5826 5826 5827 5827 5827 5828 5828 5827 5827 5827 5827 5826 5826 5825 5824 5822 5821 5820 5819 5817 5816 5814 5811 5809 5807 5805
5809 5810 5810 5811 5812 5813 5814 5814 5815 5816 5816 5817 5817 5818 5819 5819 5820 5820 5820 5821 5821 5822 5822 5822 5821 5821 5820 5820 5819 5818 5817 5816 5814 5813 5812 5810 5808 5807 5805 5802 5800 5797 5795
5805 5805 5806 5807 5807 5808 5809 5809 5810 5810 5811 5812 5812 5813 5813 5814 5814 5814 5815 5815 5815 5815 5815 5815 5814 5814 5813 5812 5811 5810 5808 5807 5805 5804 5802 5800 5798 5796 5794 5792 5790 5787 5784
5800 5801 5801 5802 5802 5803 5804 5804 5805 5806 5806 5807 5807 5807 5808 5808 5808 5809 5808 5809 5808 5808 5808 5807 5807 5806 5805 5803 5802 5801 5799 5797 5795 5794 5792 5790 5788 5785 5783 5781 5778 5776 5773
5796 5796 5797 5797 5797 5798 5798 5799 5800 5800 5800 5801 5801 5802 5802 5802 5802 5802 5802 5802 5802 5801 5800 5799 5798 5797 5796 5795 5793 5791 5790 5788 5785 5783 5781 5779 5776 5774 5771 5768 5766 5763 5760
5791 5791 5792 5792 5792 5792 5793 5793 5794 5794 5795 5795 5796 5796 5796 5796 5796 5796 5795 5795 5794 5793 5792 5791 5790 5788 5787 5785 5783 5781 5779 5777 5774 5772 5769 5767 5764 5761 5758 5755 5752 5750 5747
5785 5786 5786 5786 5786 5787 5787 5788 5788 5789 5789 5789 5789 5789 5789 5789 5788 5788 5788 5787 5786 5785 5784 5782 5781 5779 5777 5774 5772 5770 5767 5765 5762 5760 5757 5754 5751 5748 5745 5742 5739 5736 5733
5780 5780 5780 5780 5780 5781 5781 5782 5782 5782 5783 5783 5783 5782 5782 5781 5781 5780 5779 5778 5777 5775 5774 5772 5770 5768 5766 5763 5761 5758 5755 5752 5750 5747 5744 5741 5737 5734 5731 5728 5726 5723 5720
5774 5774 5774 5774 5774 5775 5776 5776 5776 5776 5776 5776 5775 5775 5774 5773 5772 5771 5770 5769 5767 5765 5763 5761 5759 5757 5754 5751 5748 5745 5742 5739 5736 5733 5730 5727 5724 5720 5717 5715 5712 5708 5705
5768 5768 5768 5769 5769 5769 5769 5770 5770 5769 5769 5769 5768 5767 5766 5765 5763 5762 5760 5759 5757 5755 5752 5750 5748 5745 5742 5739 5736 5733 5730 5726 5723 5720 5716 5713 5709 5706 5703 5700 5697 5693 5690
5761 5762 5762 5762 5762 5762 5763 5763 5763 5762 5762 5761 5760 5759 5758 5756 5755 5753 5751 5748 5746 5744 5741 5738 5736 5733 5730 5726 5723 5720 5717 5713 5709 5706 5702 5698 5695 5691 5688 5685 5681 5678 5675
5755 5755 5756 5756 5756 5756 5756 5755 5755 5754 5754 5753 5752 5751 5749 5747 5745 5743 5741 5738 5735 5732 5729 5727 5724 5720 5717 5713 5710 5706 5702 5698 5694 5691 5687 5684 5680 5676 5673 5669 5666 5663 5659
5749 5749 5749 5749 5749 5749 5748 5748 5747 5747 5746 5745 5744 5742 5740 5738 5736 5733 5731 5728 5725 5722 5718 5715 5711 5707 5703 5699 5695 5692 5688 5684 5680 5676 5672 5668 5664 5661 5657 5654 5650 5647 5644
5743 5743 5743 5742 5742 5742 5741 5741 5740 5739 5738 5736 5734 5733 5731 5728 5726 5723 5720 5717 5714 5710 5707 5703 5699 5695 5690 5686 5682 5677 5673 5669 5665 5661 5656 5653 5649 5645 5642 5639 5635 5632 5629
5738 5737 5737 5736 5736 5735 5734 5733 5732 5731 5729 5728 5725 5723 5721 5718 5716 5713 5710 5707 5703 5699 5695 5691 5687 5682 5678 5673 5669 5664 5659 5655 5650 5646 5642 5638 5635 5631 5628 5624 5621 5618 5614
5732 5731 5730 5730 5729 5728 5727 5726 5724 5722 5721 5719 5716 5714 5711 5709 5706 5703 5699 5696 5692 5688 5684 5680 5675 5670 5666 5661 5656 5651 5647 5642 5637 5633 5628 5625 5621 5617 5613 5610 5607 5603 5600